^^

Weather Underground History

Daily Summary for February 4, 2018 Units:  Metric    English   Both
Daily Weekly Monthly Yearly
  High: Low: Average:
Temperature: 24 °C 14 °C 18.5 °C
Dew Point: 16 °C 12 °C 13.6 °C
Humidity: 92% 53% 75%
Wind Speed: 9km/h 0km/h 2.8km/h
Wind Gust: 18km/h - -
Wind- - WNW
Pressure: 1024.3 hPa 1021.7 hPa -
Precipitation: 0.0 mm    
 
 
Tabular Data for February 4, 2018
Time Temperature Dew Point Pressure Wind Wind Speed Wind Gust Humidity Rainfall Rate (Hourly) solar
00:04 18 °C 16 °C 1022.1 hPa NW 3 km/h 13 km/h 85% 0.0 mm 0 W/m2
00:09 18 °C 16 °C 1022.1 hPa NW 2 km/h 10 km/h 84% 0.0 mm 0 W/m2
00:14 18 °C 16 °C 1022.1 hPa NW 4 km/h 11 km/h 84% 0.0 mm 0 W/m2
00:19 18 °C 16 °C 1022.1 hPa NW 6 km/h 13 km/h 84% 0.0 mm 0 W/m2
00:24 18 °C 16 °C 1022.1 hPa NW 5 km/h 13 km/h 84% 0.0 mm 0 W/m2
00:29 18 °C 16 °C 1022.0 hPa NW 6 km/h 13 km/h 84% 0.0 mm 0 W/m2
00:34 18 °C 16 °C 1022.0 hPa NW 2 km/h 10 km/h 84% 0.0 mm 0 W/m2
00:39 18 °C 15 °C 1022.1 hPa NW 2 km/h 10 km/h 84% 0.0 mm 0 W/m2
00:44 18 °C 15 °C 1022.1 hPa NNW 2 km/h 6 km/h 84% 0.0 mm 0 W/m2
00:49 18 °C 15 °C 1022.1 hPa NW 3 km/h 10 km/h 84% 0.0 mm 0 W/m2
00:54 18 °C 15 °C 1022.1 hPa NW 2 km/h 8 km/h 84% 0.0 mm 0 W/m2
00:59 18 °C 15 °C 1022.1 hPa NW 5 km/h 14 km/h 84% 0.0 mm 0 W/m2
01:04 18 °C 15 °C 1022.1 hPa NW 5 km/h 14 km/h 84% 0.0 mm 0 W/m2
01:09 17 °C 14 °C 1022.1 hPa NW 6 km/h 11 km/h 84% 0.0 mm 0 W/m2
01:14 17 °C 14 °C 1022.1 hPa NW 5 km/h 11 km/h 84% 0.0 mm 0 W/m2
01:19 17 °C 14 °C 1022.2 hPa WNW 1 km/h 10 km/h 84% 0.0 mm 0 W/m2
01:24 17 °C 14 °C 1022.2 hPa WNW 2 km/h 8 km/h 85% 0.0 mm 0 W/m2
01:29 17 °C 14 °C 1022.2 hPa NW 3 km/h 13 km/h 85% 0.0 mm 0 W/m2
01:34 17 °C 14 °C 1022.2 hPa NW 1 km/h 5 km/h 85% 0.0 mm 0 W/m2
01:39 17 °C 14 °C 1022.2 hPa NW 1 km/h 8 km/h 86% 0.0 mm 0 W/m2
01:44 17 °C 14 °C 1022.2 hPa Calm   3 km/h 86% 0.0 mm 0 W/m2
01:49 17 °C 14 °C 1022.2 hPa NW 1 km/h 6 km/h 86% 0.0 mm 0 W/m2
01:54 16 °C 14 °C 1022.2 hPa Calm   5 km/h 87% 0.0 mm 0 W/m2
01:59 16 °C 14 °C 1022.2 hPa NW 1 km/h 5 km/h 87% 0.0 mm 0 W/m2
02:04 16 °C 14 °C 1022.2 hPa Calm   2 km/h 87% 0.0 mm 0 W/m2
02:09 16 °C 14 °C 1022.2 hPa Calm   5 km/h 88% 0.0 mm 0 W/m2
02:14 16 °C 14 °C 1022.2 hPa NW 1 km/h 6 km/h 88% 0.0 mm 0 W/m2
02:19 16 °C 14 °C 1022.2 hPa Calm     88% 0.0 mm 0 W/m2
02:24 16 °C 14 °C 1022.2 hPa Calm     88% 0.0 mm 0 W/m2
02:29 16 °C 14 °C 1022.2 hPa Calm     88% 0.0 mm 0 W/m2
02:34 16 °C 14 °C 1022.1 hPa Calm   2 km/h 88% 0.0 mm 0 W/m2
02:39 16 °C 13 °C 1022.0 hPa Calm     88% 0.0 mm 0 W/m2
02:44 16 °C 13 °C 1022.0 hPa Calm     88% 0.0 mm 0 W/m2
02:49 16 °C 13 °C 1022.0 hPa Calm     89% 0.0 mm 0 W/m2
02:54 15 °C 13 °C 1021.9 hPa Calm     89% 0.0 mm 0 W/m2
02:59 15 °C 13 °C 1021.9 hPa Calm     89% 0.0 mm 0 W/m2
03:04 15 °C 13 °C 1021.9 hPa Calm   3 km/h 89% 0.0 mm 0 W/m2
03:09 15 °C 13 °C 1021.9 hPa NW 2 km/h 5 km/h 89% 0.0 mm 0 W/m2
03:14 15 °C 13 °C 1021.8 hPa NW 3 km/h 8 km/h 90% 0.0 mm 0 W/m2
03:19 15 °C 13 °C 1021.7 hPa Calm   5 km/h 90% 0.0 mm 0 W/m2
03:24 15 °C 13 °C 1021.8 hPa Calm   2 km/h 90% 0.0 mm 0 W/m2
03:29 15 °C 13 °C 1021.9 hPa Calm     90% 0.0 mm 0 W/m2
03:34 15 °C 13 °C 1021.9 hPa NW 2 km/h 6 km/h 90% 0.0 mm 0 W/m2
03:39 15 °C 13 °C 1021.9 hPa NW 1 km/h 6 km/h 90% 0.0 mm 0 W/m2
03:44 15 °C 13 °C 1021.9 hPa Calm   2 km/h 90% 0.0 mm 0 W/m2
03:49 14 °C 13 °C 1021.9 hPa Calm     90% 0.0 mm 0 W/m2
03:54 14 °C 13 °C 1021.9 hPa Calm   5 km/h 90% 0.0 mm 0 W/m2
03:59 14 °C 13 °C 1021.9 hPa Calm   5 km/h 91% 0.0 mm 0 W/m2
04:04 14 °C 13 °C 1021.9 hPa Calm     91% 0.0 mm 0 W/m2
04:09 14 °C 13 °C 1021.9 hPa Calm     90% 0.0 mm 0 W/m2
04:14 14 °C 13 °C 1021.9 hPa Calm     90% 0.0 mm 0 W/m2
04:19 14 °C 13 °C 1021.8 hPa Calm     91% 0.0 mm 0 W/m2
04:24 14 °C 13 °C 1021.8 hPa Calm     91% 0.0 mm 0 W/m2
04:29 14 °C 13 °C 1021.8 hPa Calm     91% 0.0 mm 0 W/m2
04:34 14 °C 13 °C 1021.8 hPa Calm     91% 0.0 mm 0 W/m2
04:39 14 °C 13 °C 1021.8 hPa Calm     91% 0.0 mm 0 W/m2
04:44 14 °C 13 °C 1021.8 hPa Calm     91% 0.0 mm 0 W/m2
04:49 14 °C 13 °C 1021.8 hPa Calm     91% 0.0 mm 0 W/m2
04:54 14 °C 12 °C 1021.9 hPa Calm     91% 0.0 mm 0 W/m2
04:59 14 °C 12 °C 1022.0 hPa Calm     91% 0.0 mm 0 W/m2
05:04 14 °C 12 °C 1021.9 hPa Calm     91% 0.0 mm 0 W/m2
05:09 14 °C 12 °C 1021.9 hPa Calm     91% 0.0 mm 0 W/m2
05:14 14 °C 12 °C 1022.0 hPa Calm     91% 0.0 mm 0 W/m2
05:19 14 °C 12 °C 1022.0 hPa Calm     92% 0.0 mm 5 W/m2
05:24 14 °C 12 °C 1022.0 hPa Calm     92% 0.0 mm 5 W/m2
05:29 14 °C 12 °C 1022.1 hPa Calm     92% 0.0 mm 7 W/m2
05:34 14 °C 12 °C 1022.2 hPa Calm     92% 0.0 mm 9 W/m2
05:39 14 °C 13 °C 1022.2 hPa Calm     92% 0.0 mm 12 W/m2
05:44 14 °C 13 °C 1022.2 hPa Calm     92% 0.0 mm 16 W/m2
05:49 14 °C 13 °C 1022.2 hPa Calm     92% 0.0 mm 19 W/m2
05:54 14 °C 13 °C 1022.2 hPa Calm   3 km/h 92% 0.0 mm 23 W/m2
05:59 14 °C 13 °C 1022.3 hPa Calm   3 km/h 92% 0.0 mm 26 W/m2
06:04 14 °C 13 °C 1022.4 hPa Calm     92% 0.0 mm 30 W/m2
06:09 14 °C 13 °C 1022.5 hPa Calm     92% 0.0 mm 35 W/m2
06:14 14 °C 13 °C 1022.5 hPa Calm     92% 0.0 mm 42 W/m2
06:19 14 °C 13 °C 1022.6 hPa Calm     92% 0.0 mm 47 W/m2
06:24 14 °C 13 °C 1022.7 hPa Calm     92% 0.0 mm 53 W/m2
06:29 14 °C 13 °C 1022.7 hPa Calm     92% 0.0 mm 58 W/m2
06:34 14 °C 13 °C 1022.7 hPa Calm     92% 0.0 mm 77 W/m2
06:39 14 °C 13 °C 1022.8 hPa Calm     92% 0.0 mm 95 W/m2
06:44 14 °C 13 °C 1022.8 hPa Calm     92% 0.0 mm 95 W/m2
06:49 14 °C 13 °C 1022.7 hPa Calm     92% 0.0 mm 107 W/m2
06:54 15 °C 13 °C 1022.8 hPa Calm     91% 0.0 mm 111 W/m2
06:59 15 °C 13 °C 1022.8 hPa Calm   5 km/h 91% 0.0 mm 139 W/m2
07:04 15 °C 13 °C 1022.8 hPa NW 2 km/h 6 km/h 90% 0.0 mm 139 W/m2
07:09 15 °C 13 °C 1022.8 hPa NW 2 km/h 8 km/h 90% 0.0 mm 127 W/m2
07:14 15 °C 13 °C 1022.8 hPa NW 2 km/h 6 km/h 90% 0.0 mm 123 W/m2
07:19 15 °C 13 °C 1022.9 hPa NW 3 km/h 10 km/h 89% 0.0 mm 114 W/m2
07:24 16 °C 13 °C 1023.0 hPa Calm   5 km/h 89% 0.0 mm 125 W/m2
07:29 16 °C 14 °C 1023.0 hPa NW 3 km/h 11 km/h 88% 0.0 mm 105 W/m2
07:34 16 °C 13 °C 1023.0 hPa NW 4 km/h 11 km/h 88% 0.0 mm 123 W/m2
07:39 16 °C 13 °C 1023.1 hPa NW 2 km/h 10 km/h 88% 0.0 mm 144 W/m2
07:44 16 °C 14 °C 1023.1 hPa NW 4 km/h 8 km/h 88% 0.0 mm 160 W/m2
07:49 16 °C 14 °C 1023.2 hPa NW 3 km/h 11 km/h 87% 0.0 mm 144 W/m2
07:54 16 °C 14 °C 1023.2 hPa NW 4 km/h 11 km/h 87% 0.0 mm 209 W/m2
07:59 16 °C 14 °C 1023.2 hPa NW 7 km/h 11 km/h 87% 0.0 mm 237 W/m2
08:04 16 °C 14 °C 1023.3 hPa WNW 5 km/h 13 km/h 86% 0.0 mm 221 W/m2
08:09 16 °C 14 °C 1023.3 hPa WNW 3 km/h 13 km/h 86% 0.0 mm 181 W/m2
08:14 16 °C 14 °C 1023.3 hPa NW 5 km/h 10 km/h 85% 0.0 mm 172 W/m2
08:19 16 °C 13 °C 1023.2 hPa NW 6 km/h 11 km/h 84% 0.0 mm 200 W/m2
08:24 16 °C 14 °C 1023.2 hPa NW 4 km/h 11 km/h 84% 0.0 mm 232 W/m2
08:29 17 °C 14 °C 1023.3 hPa NW 5 km/h 14 km/h 84% 0.0 mm 230 W/m2
08:34 17 °C 14 °C 1023.4 hPa WNW 8 km/h 18 km/h 83% 0.0 mm 276 W/m2
08:39 17 °C 14 °C 1023.4 hPa NW 3 km/h 13 km/h 83% 0.0 mm 232 W/m2
08:44 17 °C 14 °C 1023.5 hPa NNW 2 km/h 10 km/h 83% 0.0 mm 501 W/m2
08:49 17 °C 14 °C 1023.6 hPa NW 5 km/h 11 km/h 82% 0.0 mm 464 W/m2
08:54 17 °C 14 °C 1023.6 hPa NW 5 km/h 10 km/h 81% 0.0 mm 464 W/m2
08:59 17 °C 14 °C 1023.6 hPa NW 6 km/h 14 km/h 81% 0.0 mm 434 W/m2
09:04 17 °C 14 °C 1023.6 hPa NW 5 km/h 14 km/h 80% 0.0 mm 339 W/m2
09:09 17 °C 14 °C 1023.6 hPa NW 6 km/h 8 km/h 80% 0.0 mm 272 W/m2
09:14 17 °C 14 °C 1023.5 hPa NW 4 km/h 11 km/h 79% 0.0 mm 264 W/m2
09:19 17 °C 14 °C 1023.5 hPa NW 4 km/h 11 km/h 79% 0.0 mm 239 W/m2
09:24 17 °C 14 °C 1023.4 hPa NW 4 km/h 11 km/h 79% 0.0 mm 237 W/m2
09:29 17 °C 14 °C 1023.5 hPa NW 4 km/h 10 km/h 79% 0.0 mm 264 W/m2
09:34 17 °C 14 °C 1023.5 hPa NW 4 km/h 11 km/h 79% 0.0 mm 288 W/m2
09:39 18 °C 14 °C 1023.6 hPa WNW 4 km/h 11 km/h 79% 0.0 mm 302 W/m2
09:44 18 °C 14 °C 1023.5 hPa WNW 4 km/h 11 km/h 79% 0.0 mm 271 W/m2
09:49 18 °C 14 °C 1023.6 hPa WNW 5 km/h 13 km/h 78% 0.0 mm 262 W/m2
09:54 18 °C 14 °C 1023.7 hPa NW 3 km/h 10 km/h 78% 0.0 mm 325 W/m2
09:59 18 °C 14 °C 1023.8 hPa NW 4 km/h 11 km/h 78% 0.0 mm 288 W/m2
10:04 18 °C 14 °C 1023.8 hPa NW 6 km/h 11 km/h 77% 0.0 mm 308 W/m2
10:09 18 °C 14 °C 1023.8 hPa NW 5 km/h 10 km/h 77% 0.0 mm 295 W/m2
10:14 18 °C 14 °C 1023.7 hPa NW 2 km/h 10 km/h 78% 0.0 mm 290 W/m2
10:19 18 °C 14 °C 1023.7 hPa NW 2 km/h 8 km/h 77% 0.0 mm 230 W/m2
10:24 18 °C 14 °C 1023.7 hPa NW 3 km/h 8 km/h 77% 0.0 mm 251 W/m2
10:29 18 °C 14 °C 1023.7 hPa WNW 4 km/h 13 km/h 77% 0.0 mm 274 W/m2
10:34 18 °C 14 °C 1023.7 hPa WNW 5 km/h 10 km/h 77% 0.0 mm 308 W/m2
10:39 18 °C 14 °C 1023.8 hPa WNW 3 km/h 13 km/h 77% 0.0 mm 359 W/m2
10:44 18 °C 14 °C 1023.8 hPa WNW 3 km/h 13 km/h 76% 0.0 mm 308 W/m2
10:49 18 °C 14 °C 1023.9 hPa WNW 3 km/h 8 km/h 76% 0.0 mm 225 W/m2
10:54 18 °C 14 °C 1023.9 hPa WNW 4 km/h 8 km/h 76% 0.0 mm 253 W/m2
10:59 18 °C 14 °C 1023.9 hPa WNW 3 km/h 11 km/h 76% 0.0 mm 269 W/m2
11:04 18 °C 14 °C 1023.9 hPa WNW 4 km/h 8 km/h 76% 0.0 mm 322 W/m2
11:09 18 °C 14 °C 1023.9 hPa WNW 3 km/h 11 km/h 75% 0.0 mm 624 W/m2
11:14 19 °C 14 °C 1023.9 hPa NW 3 km/h 11 km/h 75% 0.0 mm 591 W/m2
11:19 19 °C 14 °C 1024.0 hPa NW 1 km/h 11 km/h 74% 0.0 mm 631 W/m2
11:24 19 °C 14 °C 1024.0 hPa NW 2 km/h 8 km/h 74% 0.0 mm 668 W/m2
11:29 19 °C 14 °C 1024.0 hPa NW 3 km/h 8 km/h 73% 0.0 mm 668 W/m2
11:34 19 °C 14 °C 1024.0 hPa NW 5 km/h 10 km/h 72% 0.0 mm 429 W/m2
11:39 19 °C 14 °C 1024.0 hPa WNW 2 km/h 8 km/h 73% 0.0 mm 446 W/m2
11:44 19 °C 14 °C 1024.0 hPa WNW 5 km/h 10 km/h 72% 0.0 mm 497 W/m2
11:49 19 °C 14 °C 1024.0 hPa WNW 3 km/h 10 km/h 71% 0.0 mm 427 W/m2
11:54 19 °C 14 °C 1024.0 hPa WNW 2 km/h 11 km/h 72% 0.0 mm 566 W/m2
11:59 19 °C 14 °C 1024.0 hPa NW 3 km/h 11 km/h 72% 0.0 mm 647 W/m2
12:04 19 °C 14 °C 1024.0 hPa NW 1 km/h 6 km/h 72% 0.0 mm 624 W/m2
12:09 20 °C 15 °C 1023.9 hPa WNW 4 km/h 8 km/h 72% 0.0 mm 944 W/m2
12:14 20 °C 15 °C 1024.0 hPa WNW 3 km/h 8 km/h 71% 0.0 mm 944 W/m2
12:19 21 °C 15 °C 1023.9 hPa WNW 3 km/h 6 km/h 71% 0.0 mm 874 W/m2
12:24 21 °C 14 °C 1023.9 hPa WNW 4 km/h 10 km/h 68% 0.0 mm 877 W/m2
12:29 21 °C 14 °C 1023.9 hPa NW 4 km/h 11 km/h 68% 0.0 mm 877 W/m2
12:34 21 °C 14 °C 1024.0 hPa NE 4 km/h 11 km/h 67% 0.0 mm 722 W/m2
12:39 21 °C 15 °C 1023.9 hPa NNE 2 km/h 6 km/h 68% 0.0 mm 884 W/m2
12:44 21 °C 15 °C 1023.9 hPa NNW 4 km/h 10 km/h 66% 0.0 mm 911 W/m2
12:49 21 °C 14 °C 1023.9 hPa NW 7 km/h 13 km/h 65% 0.0 mm 856 W/m2
12:54 21 °C 14 °C 1024.0 hPa NW 4 km/h 13 km/h 65% 0.0 mm 621 W/m2
12:59 21 °C 14 °C 1024.0 hPa NW 2 km/h 6 km/h 66% 0.0 mm 626 W/m2
13:04 21 °C 14 °C 1023.9 hPa NW 3 km/h 10 km/h 66% 0.0 mm 715 W/m2
13:09 21 °C 15 °C 1023.9 hPa NW 4 km/h 14 km/h 67% 0.0 mm 798 W/m2
13:14 22 °C 14 °C 1023.9 hPa NW 6 km/h 11 km/h 65% 0.0 mm 905 W/m2
13:19 22 °C 15 °C 1023.8 hPa WNW 1 km/h 11 km/h 66% 0.0 mm 932 W/m2
13:24 22 °C 15 °C 1023.8 hPa NNW 3 km/h 8 km/h 64% 0.0 mm 645 W/m2
13:29 22 °C 15 °C 1023.8 hPa WNW 3 km/h 11 km/h 65% 0.0 mm 629 W/m2
13:34 22 °C 14 °C 1023.8 hPa WNW 3 km/h 11 km/h 62% 0.0 mm 649 W/m2
13:39 22 °C 15 °C 1023.8 hPa ENE 2 km/h 6 km/h 63% 0.0 mm 649 W/m2
13:44 22 °C 15 °C 1023.8 hPa NW 4 km/h 11 km/h 63% 0.0 mm 605 W/m2
13:49 22 °C 14 °C 1023.8 hPa NW 5 km/h 11 km/h 61% 0.0 mm 599 W/m2
13:54 22 °C 14 °C 1023.7 hPa NW 1 km/h 8 km/h 61% 0.0 mm 631 W/m2
13:59 23 °C 14 °C 1023.7 hPa WNW 4 km/h 14 km/h 61% 0.0 mm 624 W/m2
14:04 22 °C 14 °C 1023.7 hPa WNW 5 km/h 14 km/h 60% 0.0 mm 499 W/m2
14:09 22 °C 14 °C 1023.8 hPa NNW 1 km/h 14 km/h 60% 0.0 mm 499 W/m2
14:14 23 °C 14 °C 1023.8 hPa NNW 1 km/h 5 km/h 58% 0.0 mm 592 W/m2
14:19 23 °C 14 °C 1023.8 hPa NW 5 km/h 13 km/h 57% 0.0 mm 550 W/m2
14:24 23 °C 14 °C 1023.7 hPa WNW 3 km/h 13 km/h 56% 0.0 mm 670 W/m2
14:29 23 °C 14 °C 1023.6 hPa North 1 km/h 6 km/h 56% 0.0 mm 626 W/m2
14:34 23 °C 14 °C 1023.7 hPa NW 3 km/h 10 km/h 55% 0.0 mm 561 W/m2
14:39 23 °C 14 °C 1023.7 hPa NNW 3 km/h 8 km/h 54% 0.0 mm 631 W/m2
14:44 23 °C 14 °C 1023.6 hPa NNE 1 km/h 10 km/h 54% 0.0 mm 693 W/m2
14:49 23 °C 13 °C 1023.6 hPa SW 3 km/h 10 km/h 54% 0.0 mm 578 W/m2
14:54 23 °C 14 °C 1023.6 hPa NW 1 km/h 8 km/h 55% 0.0 mm 483 W/m2
14:59 23 °C 14 °C 1023.6 hPa North 2 km/h 8 km/h 55% 0.0 mm 422 W/m2
15:04 23 °C 14 °C 1023.6 hPa NNW 1 km/h 5 km/h 55% 0.0 mm 250 W/m2
15:09 23 °C 14 °C 1023.6 hPa NW 5 km/h 10 km/h 55% 0.0 mm 248 W/m2
15:14 23 °C 14 °C 1023.6 hPa WNW 2 km/h 10 km/h 57% 0.0 mm 271 W/m2
15:19 23 °C 14 °C 1023.6 hPa WNW 4 km/h 11 km/h 57% 0.0 mm 501 W/m2
15:24 23 °C 13 °C 1023.5 hPa NW 3 km/h 11 km/h 56% 0.0 mm 269 W/m2
15:29 23 °C 14 °C 1023.4 hPa NW 5 km/h 10 km/h 57% 0.0 mm 489 W/m2
15:34 23 °C 13 °C 1023.5 hPa WNW 5 km/h 11 km/h 56% 0.0 mm 548 W/m2
15:39 23 °C 14 °C 1023.4 hPa NW 4 km/h 10 km/h 57% 0.0 mm 582 W/m2
15:44 23 °C 14 °C 1023.4 hPa WNW 6 km/h 16 km/h 57% 0.0 mm 663 W/m2
15:49 23 °C 14 °C 1023.5 hPa NW 2 km/h 10 km/h 56% 0.0 mm 721 W/m2
15:54 24 °C 14 °C 1023.4 hPa NW 9 km/h 16 km/h 55% 0.0 mm 729 W/m2
15:59 24 °C 14 °C 1023.5 hPa NW 7 km/h 16 km/h 53% 0.0 mm 598 W/m2
16:04 23 °C 14 °C 1023.5 hPa WNW 6 km/h 14 km/h 55% 0.0 mm 522 W/m2
16:09 23 °C 14 °C 1023.6 hPa WNW 7 km/h 16 km/h 55% 0.0 mm 554 W/m2
16:14 23 °C 14 °C 1023.6 hPa WNW 6 km/h 13 km/h 56% 0.0 mm 561 W/m2
16:19 23 °C 14 °C 1023.5 hPa WSW 5 km/h 16 km/h 57% 0.0 mm 619 W/m2
16:24 24 °C 14 °C 1023.5 hPa WNW 5 km/h 16 km/h 57% 0.0 mm 596 W/m2
16:29 24 °C 14 °C 1023.5 hPa WNW 5 km/h 10 km/h 56% 0.0 mm 517 W/m2
16:34 24 °C 14 °C 1023.4 hPa WNW 5 km/h 10 km/h 55% 0.0 mm 529 W/m2
16:39 24 °C 14 °C 1023.4 hPa WNW 5 km/h 13 km/h 55% 0.0 mm 577 W/m2
16:44 24 °C 14 °C 1023.4 hPa WNW 4 km/h 10 km/h 55% 0.0 mm 577 W/m2
16:49 23 °C 14 °C 1023.5 hPa NW 3 km/h 10 km/h 56% 0.0 mm 304 W/m2
16:54 23 °C 14 °C 1023.4 hPa NW 4 km/h 11 km/h 57% 0.0 mm 508 W/m2
16:59 23 °C 14 °C 1023.4 hPa WNW 6 km/h 13 km/h 57% 0.0 mm 554 W/m2
17:04 23 °C 14 °C 1023.4 hPa WNW 2 km/h 13 km/h 57% 0.0 mm 592 W/m2
17:09 24 °C 14 °C 1023.3 hPa West 4 km/h 13 km/h 57% 0.0 mm 550 W/m2
17:14 24 °C 14 °C 1023.3 hPa NW 2 km/h 11 km/h 56% 0.0 mm 550 W/m2
17:19 24 °C 14 °C 1023.3 hPa NW 4 km/h 13 km/h 55% 0.0 mm 506 W/m2
17:24 24 °C 14 °C 1023.3 hPa NW 6 km/h 13 km/h 55% 0.0 mm 462 W/m2
17:29 24 °C 14 °C 1023.3 hPa NW 5 km/h 14 km/h 55% 0.0 mm 473 W/m2
17:34 23 °C 14 °C 1023.4 hPa WNW 5 km/h 11 km/h 55% 0.0 mm 429 W/m2
17:39 23 °C 14 °C 1023.4 hPa WNW 4 km/h 10 km/h 57% 0.0 mm 471 W/m2
17:44 23 °C 14 °C 1023.4 hPa WNW 8 km/h 14 km/h 56% 0.0 mm 406 W/m2
17:49 23 °C 14 °C 1023.4 hPa NW 7 km/h 13 km/h 55% 0.0 mm 376 W/m2
17:54 23 °C 14 °C 1023.3 hPa WNW 3 km/h 13 km/h 56% 0.0 mm 343 W/m2
17:59 23 °C 14 °C 1023.3 hPa WNW 5 km/h 11 km/h 55% 0.0 mm 348 W/m2
18:04 23 °C 14 °C 1023.3 hPa WNW 6 km/h 13 km/h 54% 0.0 mm 343 W/m2
18:09 23 °C 14 °C 1023.4 hPa NW 4 km/h 13 km/h 55% 0.0 mm 332 W/m2
18:14 23 °C 14 °C 1023.3 hPa NW 4 km/h 8 km/h 55% 0.0 mm 311 W/m2
18:19 23 °C 14 °C 1023.3 hPa NW 8 km/h 11 km/h 54% 0.0 mm 320 W/m2
18:24 23 °C 14 °C 1023.3 hPa WNW 6 km/h 14 km/h 54% 0.0 mm 297 W/m2
18:29 23 °C 13 °C 1023.3 hPa NW 6 km/h 11 km/h 54% 0.0 mm 299 W/m2
18:34 23 °C 13 °C 1023.3 hPa WNW 6 km/h 16 km/h 54% 0.0 mm 288 W/m2
18:39 23 °C 13 °C 1023.3 hPa NW 6 km/h 11 km/h 54% 0.0 mm 257 W/m2
18:44 23 °C 14 °C 1023.3 hPa NW 7 km/h 13 km/h 55% 0.0 mm 244 W/m2
18:49 23 °C 14 °C 1023.2 hPa WNW 5 km/h 13 km/h 56% 0.0 mm 241 W/m2
18:54 23 °C 13 °C 1023.3 hPa WNW 8 km/h 13 km/h 56% 0.0 mm 223 W/m2
18:59 23 °C 13 °C 1023.3 hPa WNW 6 km/h 13 km/h 56% 0.0 mm 211 W/m2
19:04 23 °C 13 °C 1023.2 hPa WNW 6 km/h 14 km/h 56% 0.0 mm 193 W/m2
19:09 23 °C 13 °C 1023.2 hPa WNW 7 km/h 14 km/h 56% 0.0 mm 185 W/m2
19:14 22 °C 13 °C 1023.2 hPa WNW 6 km/h 14 km/h 56% 0.0 mm 167 W/m2
19:19 22 °C 13 °C 1023.3 hPa WNW 7 km/h 13 km/h 56% 0.0 mm 148 W/m2
19:24 22 °C 13 °C 1023.4 hPa NW 5 km/h 10 km/h 56% 0.0 mm 137 W/m2
19:29 22 °C 13 °C 1023.4 hPa WNW 6 km/h 14 km/h 56% 0.0 mm 125 W/m2
19:34 22 °C 13 °C 1023.5 hPa WNW 7 km/h 14 km/h 57% 0.0 mm 105 W/m2
19:39 22 °C 13 °C 1023.5 hPa WNW 6 km/h 14 km/h 58% 0.0 mm 97 W/m2
19:44 22 °C 13 °C 1023.6 hPa WNW 5 km/h 10 km/h 58% 0.0 mm 83 W/m2
19:49 22 °C 13 °C 1023.6 hPa NW 5 km/h 10 km/h 59% 0.0 mm 74 W/m2
19:54 22 °C 13 °C 1023.7 hPa NW 5 km/h 11 km/h 60% 0.0 mm 63 W/m2
19:59 21 °C 13 °C 1023.7 hPa WNW 5 km/h 13 km/h 60% 0.0 mm 51 W/m2
20:04 21 °C 13 °C 1023.7 hPa WNW 5 km/h 13 km/h 61% 0.0 mm 32 W/m2
20:09 21 °C 13 °C 1023.7 hPa NW 5 km/h 11 km/h 62% 0.0 mm 25 W/m2
20:14 21 °C 13 °C 1023.7 hPa NW 6 km/h 13 km/h 63% 0.0 mm 19 W/m2
20:19 21 °C 13 °C 1023.7 hPa NW 5 km/h 11 km/h 64% 0.0 mm 18 W/m2
20:24 20 °C 13 °C 1023.8 hPa NW 5 km/h 11 km/h 65% 0.0 mm 16 W/m2
20:29 20 °C 13 °C 1023.8 hPa NW 5 km/h 10 km/h 66% 0.0 mm 14 W/m2
20:34 20 °C 13 °C 1023.8 hPa NW 3 km/h 10 km/h 67% 0.0 mm 12 W/m2
20:39 19 °C 13 °C 1023.9 hPa NW 2 km/h 6 km/h 68% 0.0 mm 11 W/m2
20:44 19 °C 13 °C 1023.9 hPa NW 2 km/h 6 km/h 68% 0.0 mm 9 W/m2
20:49 19 °C 13 °C 1024.0 hPa NW 1 km/h 8 km/h 69% 0.0 mm 7 W/m2
20:54 19 °C 13 °C 1024.0 hPa NW 4 km/h 10 km/h 69% 0.0 mm 5 W/m2
20:59 19 °C 13 °C 1024.0 hPa NW 4 km/h 6 km/h 70% 0.0 mm 0 W/m2
21:04 19 °C 13 °C 1024.1 hPa NW 3 km/h 8 km/h 70% 0.0 mm 0 W/m2
21:09 18 °C 13 °C 1024.1 hPa NW 5 km/h 10 km/h 71% 0.0 mm 0 W/m2
21:14 18 °C 13 °C 1024.2 hPa NW 3 km/h 10 km/h 71% 0.0 mm 0 W/m2
21:19 18 °C 13 °C 1024.2 hPa NW 2 km/h 6 km/h 72% 0.0 mm 0 W/m2
21:24 18 °C 13 °C 1024.2 hPa NW 2 km/h 6 km/h 72% 0.0 mm 0 W/m2
21:29 18 °C 13 °C 1024.2 hPa NW 3 km/h 8 km/h 73% 0.0 mm 0 W/m2
21:34 18 °C 13 °C 1024.3 hPa NW 4 km/h 6 km/h 73% 0.0 mm 0 W/m2
21:39 18 °C 13 °C 1024.3 hPa NW 3 km/h 8 km/h 74% 0.0 mm 0 W/m2
21:44 18 °C 13 °C 1024.3 hPa NW 3 km/h 10 km/h 74% 0.0 mm 0 W/m2
21:49 17 °C 13 °C 1024.3 hPa NW 2 km/h 5 km/h 74% 0.0 mm 0 W/m2
21:54 17 °C 13 °C 1024.3 hPa NW 1 km/h 6 km/h 75% 0.0 mm 0 W/m2
21:59 17 °C 13 °C 1024.3 hPa NW 1 km/h 5 km/h 75% 0.0 mm 0 W/m2
22:04 17 °C 13 °C 1024.3 hPa Calm   3 km/h 75% 0.0 mm 0 W/m2
22:09 17 °C 13 °C 1024.3 hPa Calm   3 km/h 75% 0.0 mm 0 W/m2
22:14 17 °C 13 °C 1024.3 hPa Calm   3 km/h 76% 0.0 mm 0 W/m2
22:19 17 °C 13 °C 1024.3 hPa Calm     76% 0.0 mm 0 W/m2
22:24 17 °C 13 °C 1024.3 hPa Calm     77% 0.0 mm 0 W/m2
22:29 16 °C 12 °C 1024.2 hPa Calm     78% 0.0 mm 0 W/m2
22:34 16 °C 12 °C 1024.3 hPa Calm     79% 0.0 mm 0 W/m2
22:39 16 °C 12 °C 1024.3 hPa Calm     79% 0.0 mm 0 W/m2
22:44 16 °C 12 °C 1024.2 hPa Calm   6 km/h 80% 0.0 mm 0 W/m2
22:49 16 °C 13 °C 1024.2 hPa Calm   3 km/h 81% 0.0 mm 0 W/m2
22:54 16 °C 13 °C 1024.2 hPa NNW 1 km/h 6 km/h 81% 0.0 mm 0 W/m2
22:59 16 °C 13 °C 1024.2 hPa Calm   6 km/h 81% 0.0 mm 0 W/m2
23:04 16 °C 12 °C 1024.2 hPa Calm     80% 0.0 mm 0 W/m2
23:09 16 °C 12 °C 1024.2 hPa Calm     80% 0.0 mm 0 W/m2
23:14 16 °C 12 °C 1024.2 hPa Calm     81% 0.0 mm 0 W/m2
23:19 16 °C 12 °C 1024.1 hPa Calm     81% 0.0 mm 0 W/m2
23:24 15 °C 12 °C 1024.1 hPa Calm     81% 0.0 mm 0 W/m2
23:29 15 °C 12 °C 1024.0 hPa Calm     82% 0.0 mm 0 W/m2
23:34 15 °C 12 °C 1024.1 hPa Calm     82% 0.0 mm 0 W/m2
23:39 15 °C 12 °C 1024.2 hPa Calm     83% 0.0 mm 0 W/m2
23:44 15 °C 12 °C 1024.3 hPa Calm     83% 0.0 mm 0 W/m2
23:49 14 °C 12 °C 1024.2 hPa Calm     84% 0.0 mm 0 W/m2
23:54 14 °C 12 °C 1024.3 hPa Calm     84% 0.0 mm 0 W/m2
23:59 14 °C 12 °C 1024.3 hPa Calm     84% 0.0 mm 0 W/m2
Compliments of Weather Underground - 4.25 mb